www.pogodaiklimat.ru

АРХИВ ПОГОДЫ в Краснодаре

Время (UTC), дата Ветер
(напр.,м/с)
 
Видим.   Явления Облачность Т
(С)
Тd
(С)
f
(%)
Тe
(С)
Тes
(С)
Комфортность P
(гПа)
Po
(гПа)
Тmin
(С)
Tmax
(С)
R
(мм)
S
(см)
18 18.01 В 2 10 км 10/10 1000 м
[Sc]
+3.8 -0.0 76 +1 +1 по сезону 1027.6 1023.8
21 18.01 В 1 10 км 4/0
[Ci fib]
+2.0 -0.7 82 0 0 по сезону 1026.8 1023.0
00 19.01 В 1 10 км ясно +1.2 -0.8 87 -1 -1 по сезону 1026.0 1022.2
03 19.01 В 1 10 км 10/0
[Ac trans Ci fib]
+2.1 -0.7 82 +1 +1 по сезону 1024.4 1020.6 +1.1
06 19.01 В 1 10 км 10/0
[Ac trans Cc]
+3.1 -0.4 78 +2 +2 тепло 1024.5 1020.7 +1.0
09 19.01 ЮВ 1 10 км 10/0
[Ci fib]
+9.3 +2.5 62 +9 +13 тепло 1023.3 1019.6
12 19.01 Ю 1 10 км 10/0
[Ac trans Ci fib]
+10.5 +2.8 59 +10 +12 тепло 1021.9 1018.2
15 19.01 Ю 1 10 км 10/0
[Ac trans Cc]
+8.3 +2.6 67 +8 +8 тепло 1021.6 1017.9 +10.5
18 19.01 Ю 1 10 км 10/4 1000 м
[Sc Ac und]
+7.5 +2.1 69 +7 +7 тепло 1021.4 1017.7
21 19.01 Ю 1 10 км 10/0
[Ac und]
+7.1 +2.4 72 +6 +6 тепло 1021.0 1017.3
00 20.01 Ю 1 10 км 10/0
[Ac und]
+7.1 +2.4 72 +6 +6 тепло 1020.6 1016.9
03 20.01 Ю 2 10 км слабый ливневой дождь 10/8 600 м
[Cb cap Ac und]
+7.9 +2.6 69 +6 +6 тепло 1020.0 1016.3 +6.3 0.0
06 20.01 Ю 2 10 км {ливн. осадки} 10/10 600 м
[Cb cap]
+8.3 +2.6 67 +7 +7 тепло 1020.4 1016.7
09 20.01 Ю 3 4000 м слабый ливневой дождь 10/10 600 м
[Cb cap]
+7.5 +4.5 81 +5 +5 тепло 1020.3 1016.6
12 20.01 Ю 3 10 км {ливн. осадки} 9/9 1000 м
[Cb cap]
+9.6 +4.8 72 +7 +8 тепло 1019.9 1016.2
15 20.01 Ю 3 4000 м слабый ливневой дождь 10/10 600 м
[Cb cap]
+8.2 +3.7 73 +6 +6 тепло 1020.4 1016.7 +9.8 4
18 20.01 Ю 1 10 км {ливн. осадки} 8/8 1000 м
[Sc]
+8.6 +1.8 62 +8 +8 тепло 1020.6 1016.9
21 20.01 Ю 1 10 км 8/0
[Ac trans]
+8.5 -1.0 51 +8 +8 тепло 1021.6 1017.9
00 21.01 В 1 10 км 9/9 1000 м
[Sc]
+6.7 +2.8 76 +6 +6 тепло 1022.3 1018.6
03 21.01 В 1 10 км 10/8 1000 м
[Sc Ac trans]
+5.9 +2.7 80 +5 +5 тепло 1022.1 1018.4 +5.9
06 21.01 СВ 1 10 км 9/3 1000 м
[Sc Ac cast]
+6.2 +2.7 78 +5 +5 тепло 1022.6 1018.9 +5.8
09 21.01 ЮВ 1 10 км 9/9 1000 м
[Sc]
+10.3 +3.1 61 +10 +11 тепло 1022.4 1018.7
12 21.01 Ю 1 10 км 10/10 600 м
[Cb cap]
+11.5 +1.1 49 +12 +12 тепло 1021.6 1018.0
15 21.01 ЮВ 1 10 км в посл. час ливневой дождь 10/10 600 м
[Cb cap]
+9.4 +4.2 70 +9 +9 тепло 1021.6 1017.9 +12.2 0.0
18 21.01 СВ 1 10 км {ливн. осадки} 9/9 1000 м
[Sc diur, vesp]
+8.1 +5.6 84 +7 +7 тепло 1021.3 1017.6
21 21.01 СВ 1 10 км 9/9 1000 м
[Sc]
+7.0 +4.5 84 +6 +6 тепло 1021.8 1018.1
00 22.01 СВ 1 10 км 9/3 1000 м
[Sc Ac trans]
+5.8 +4.2 89 +5 +5 тепло 1022.3 1018.5
03 22.01 СВ 1 2000 м дымка 9/9 300 м
[St]
+4.9 +3.7 92 +3 +3 тепло 1023.1 1019.3 +4.8 0.3
06 22.01 СВ 1 1000 м дымка 10/10 300 м
[St]
+3.8 +2.6 92 +2 +2 тепло 1024.7 1020.9 +3.7
09 22.01 СВ 1 4000 м дымка 8/8 300 м
[St]
+6.0 +3.1 82 +5 +6 тепло 1025.6 1021.9
12 22.01 СВ 1 10 км 6/0
[Ac trans Ci fib]
+9.3 +3.9 69 +9 +11 тепло 1025.2 1021.5
15 22.01 штиль 0 10 км 4/0
[Ci fib]
+6.7 +3.1 78 +6 +6 тепло 1026.2 1022.5 +9.8
18 22.01 штиль 0 4000 м дымка 5/0
[Ci fib]
+4.7 +3.1 89 +4 +4 тепло 1026.8 1023.0
21 22.01 СВ 1 4000 м дымка ясно +3.9 +2.6 91 +2 +2 тепло 1027.2 1023.4
00 23.01 В 1 4000 м дымка 9/6 1000 м
[Sc Ac trans]
+2.5 +1.2 91 +1 +1 тепло 1027.5 1023.7
03 23.01 В 2 500 м туман ?/? +2.6 +1.7 94 -1 -1 по сезону 1027.5 1023.7 +2.2
06 23.01 В 2 2000 м дымка {туман} 3/0
[Ac cast]
+2.8 +1.0 88 -0 0 по сезону 1028.1 1024.3 +2.2
09 23.01 СВ 2 10 км 3/0
[Ci fib]
+7.5 +2.7 72 +6 +10 тепло 1027.8 1024.0
12 23.01 СВ 2 10 км 8/1 1000 м
[Sc Ci fib]
+8.5 +3.9 73 +7 +8 тепло 1026.2 1022.5
15 23.01 СВ 2 10 км 8/0
[Ac trans Ci fib]
+4.8 +2.4 84 +2 +2 по сезону 1027.1 1023.3 +9.2
18 23.01 В 3 10 км 3/3 300 м
[St]
+3.3 +0.5 82 -1 -1 по сезону 1026.4 1022.7
21 23.01 СВ 2 10 км 3/3 300 м
[St]
+2.0 -0.2 85 -1 -1 по сезону 1025.9 1022.0
00 24.01 СВ 3 10 км ясно +1.5 -0.8 85 -3 -3 по сезону 1025.0 1021.2
03 24.01 СВ 3 10 км ясно +1.2 -1.2 84 -3 -3 по сезону 1023.5 1019.7 +1.2
06 24.01 В 3-10
{10}
10 км ясно +1.7 -1.6 79 -2 -2 по сезону 1022.6 1018.8 +0.9
09 24.01 СВ 4
{10}
10 км 5/0
[Cc]
+4.8 -1.5 64 +1 +4 по сезону 1021.6 1017.9
12 24.01 В 4 10 км 9/0
[Cc]
+5.6 -1.3 61 +2 +3 по сезону 1019.9 1016.2
15 24.01 В 5-11
{12}
10 км 10/0
[Ac trans Ci fib]
+2.5 -2.1 72 -3 -3 по сезону 1019.7 1015.9 +6.0
18 24.01 В 4
{11}
10 км ясно +1.6 -2.5 74 -3 -3 по сезону 1019.3 1015.5
21 24.01 В 2 10 км ясно +1.2 -2.5 76 -2 -2 по сезону 1018.9 1015.1
00 25.01 В 3 10 км ясно +0.9 -2.8 76 -3 -3 по сезону 1018.3 1014.5
03 25.01 В 3 10 км ясно +1.3 -2.7 75 -3 -3 по сезону 1018.3 1014.5 +0.8
06 25.01 В 3 10 км 9/9 600 м
[Cb cap]
+2.1 -2.8 70 -2 -2 по сезону 1018.8 1015.1
09 25.01 В 3 10 км 10/6 1000 м
[Sc Ac trans]
+4.6 -2.1 62 +1 +2 по сезону 1019.3 1015.5
12 25.01 В 3 10 км 10/10 600 м
[Cb cap]
+6.7 -0.5 60 +4 +4 тепло 1018.5 1014.8
15 25.01 В 3 10 км 10/10 600 м
[Cb cap]
+6.6 -0.2 62 +4 +4 тепло 1019.7 1015.9 +6.9

 

Обсудить погоду в Краснодаре на МЕТЕОФОРУМЕ

 

Местоположение метеостанции Краснодар (Краснодарский край, Россия): широта 45.03 долгота 39.15 высота над уровнем моря 34 м.

В архиве по умолчанию представлена погода в Краснодаре за последнюю неделю. Архивные данные за месяц целиком и за предыдущие месяцы, начиная с января 2011 года, Вы можете получить, выбрав интересующий диапазон дат из раскрывающегося списка и нажав кнопку "Ввод!".

Внимание! Время в таблицах - всемирное. Для получения местного времени необходимо прибавить поправку, которая в Краснодаре равна 3 ч.

Ветер - указаны скорость ветра в м/с - средняя за 10 мин, порывы в срок и между сроками (в фигурных скобках) и направление, откуда дует ветер: С - северный, СВ - северо-восточный, В - восточный, ЮВ - юго-восточный, Ю - южный, ЮЗ - юго-западный, З - западный, СЗ - северо-западный.
Видимость - горизонтальная дальность видимости в метрах или километрах. При видимости от 1 до 10 км при отсутствии осадков обычно наблюдается дымка, при ухудшении видимости до 1 км и менее - туман. В сухую погоду видимость может ухудшаться дымом, пылью или мглою.
Явления - указаны атмосферные явления, наблюдавшиеся в срок или в последний час перед сроком; фигурными скобками обозначены явления, наблюдавшиеся между сроками (за 1-3 часа до срока); квадратными скобками обозначены град или гололедные отложения с указанием их диаметра в мм.
Облачность - указаны через наклонную черту общая и нижняя облачность в баллах и высота нижней границы облаков в метрах; квадратными скобками обозначены формы облаков: Ci - перистые, Cs - перисто-слоистые, Cc - перисто-кучевые, Ac - высококучевые, As - высокослоистые, Sc - слоисто-кучевые, Ns - слоисто-дождевые, Cu - кучевые, Cb - кучево-дождевые. Подробнее классификацию облаков см. в Атласе облаков (PDF).
T - Температура воздуха - температура, измеренная на высоте 2 м над землей.
Td - Температура точки росы - температура, при понижении до которой содержащийся в воздухе водяной пар достигнет насыщения.
f - Относительная влажность воздуха - влажноcть воздуха, измеренная на высоте 2 м над землей.
Te - Эффективная температура - температура, которую ощущает одетый по сезону человек в тени. Характеристика душности погоды. При расчете учитывается влияние влажности воздуха и скорости ветра на теплоощущения человека.
Tes - Эффективная температура на солнце - температура, которую ощущает человек, с поправкой на солнечный нагрев. Характеристика знойности погоды. Зависит от высоты солнца над горизонтом, облачности и скорости ветра. Ночью, в пасмурную погоду, а также при ветре 12 м/с и более поправка равна нулю.
P - Атмосферное давление - приведенное к уровню моря атмосферное давление.
Po - Атмосферное давление - измеренное на уровне метеостанции атмосферное давление.
Tmin - Минимальная температура - минимум температуры воздуха на высоте 2 м над землей.
Tmax - Максимальная температура - максимум температуры воздуха на высоте 2 м над землей.
R - Количество осадков - Количество выпавших осадков, мм.
S - Снежный покров - Высота снежного покрова, см.